Chornyi Kut

Ukraine / Odesa District     47˚23′31″N   30˚27′42″E
temp.,
°C
wind,
m/s
gust,
m/s
humid.,
%
clouds,
%
prec.,
mm/h
давл.,
hPa
HPBL,
m
27 november, fri
fri2723:00+3˚ssw34940 0.0 102481
02:00+2˚ssw34920 0.0 102363
05:00+2˚ssw34900 0.0 102264
08:00+2˚sw33902 0.0 102260
11:00+6˚sw346588 0.0 1022357
14:00+8˚wsw345048 0.0 1020537
17:00+4˚wsw23630 0.0 102022
20:00+3˚w22664 0.0 102022
28 november, sat
sat2823:00+2˚nw126888 0.0 102022
02:00+1˚nnw127295 0.0 102022
05:00+1˚n2283100 0.0 101922
08:00+1˚n228996 0.0 101922
11:00+5˚ne22722 0.0 1019289
14:00+6˚ne126951 0.0 1018419
17:00+4˚ne2382100 0.0 101838
20:00+3˚ne2386100 0.0 101854
29 november, sun
sun2923:00+2˚ne2288100 0.0 101725
02:00+2˚n1186100 0.0 101722
05:00+2˚nnw2294100 0.0 101730
08:00+3˚nnw2298100 0.3 101887
11:00+3˚wnw1298100 0.8 101998
14:00+3˚nw2395100 1.3 1019198
17:00+2˚n229088 0.1 102056
20:00+1˚nnw128771 0.1 102126
30 november, mon
mon3023:00+1˚n238690 0.0 102274
02:00n358593 0.0 1022124
05:00n3682100 0.0 1022171
08:00nne3678100 0.0 1024241
11:00+3˚n5764100 0.0 1024404
14:00+3˚nne5760100 0.0 1024684
17:00n61093100 0.8 1025528
20:00n61196100 1.8 1026560
1 december, tue
tue123:00n71294100 1.1 1027548
02:00n71196100 1.4 1026550
05:00n71197100 1.1 1026520
08:00n71196100 2.9 1026462
11:00n71096100 0.7 1026390
14:00n5898100 1.3 1025415
17:00n4797100 0.1 1024358
20:00nnw3597100 0.2 1024266